Location: *
(43.4667°N, 11.6833°E)
Time: 01:25:33
(UTC+00:00)

IRIDIUM 114 - Pass Details

Date: 19 July 2019
Orbit: 776 x 779 km, 86.4° (Epoch: 24 August)

Event Time Altitude Azimuth Distance (km) Brightness Sun altitude
Rises 19:16:08 0° 356° (N) 3,271 8.2 -4.9°
Reaches altitude 10° 19:18:29 10° 357° (N) 2,338 7.4 -5.3°
Maximum altitude 19:23:44 90° 314° (NW) 784 4.4 -6.1°
Drops below altitude 10° 19:28:56 10° 179° (S) 2,319 6.4 -6.8°
Sets 19:31:16 0° 179° (S) 3,241 7.2 -7.2°
